Temperature
14 12 12 13 13 14 14 14 14 14 14 14 13 13 14 15 14 14 16 17 18 19 19 19 19 19 18 18 17 17 16 16 15 14 13 13 12 12 12 12 11 11 11 10
12 12 13 14 13 14 14 13 13 13 14 14 12 12 13 13 14 15 16 17 18 19 19 19 19 19 19 18 18 17 17 16 15 15 14 13 13 12 12 12 11 11 11 10
12 13 14 14 13 13 13 13 13 14 13 13 12 13 14 14 14 15 16 17 18 19 19 19 19 19 19 18 18 18 17 16 16 15 14 13 12 12 12 11 11 11 11 10
12 13 13 13 13 13 13 13 13 14 13 12 13 12 13 13 13 14 16 17 18 19 19 19 19 19 19 19 18 18 17 16 16 15 14 13 13 12 13 12 12 11 11 10
12 12 13 13 13 13 13 13 13 13 13 12 11 11 12 12 14 15 15 17 18 19 19 19 19 19 19 19 18 17 17 16 16 15 14 13 13 13 12 12 12 11 11 11
12 12 13 13 13 13 13 12 11 10 10 11 11 11 12 12 14 15 15 17 18 19 19 19 19 19 19 18 18 17 17 16 15 15 14 13 13 13 12 12 12 11 11 11
12 12 12 12 12 12 12 12 11 12 11 11 11 10 11 13 13 14 15 17 18 19 19 19 19 19 19 18 18 17 17 16 16 15 14 14 13 13 12 12 12 11 11 11
11 11 12 12 12 12 12 12 12 12 12 11 10 10 12 13 13 14 15 17 18 18 19 19 19 19 19 18 18 17 17 16 16 15 14 14 13 12 12 12 11 11 11 11
11 11 12 12 12 12 11 11 11 11 11 11 10 10 11 12 13 13 14 16 17 18 19 19 19 19 18 18 18 17 17 16 16 15 14 14 13 12 12 12 11 11 11 10
11 11 11 11 12 12 12 10 10 10 11 11 11 10 12 14 14 14 13 15 17 18 19 19 19 18 18 18 18 17 17 16 16 15 14 14 13 13 12 11 11 11 10 10
11 11 10 11 11 11 10 10 10 10 10 10 11 12 12 13 14 13 13 16 17 18 18 18 18 18 18 18 17 17 16 16 15 15 14 14 13 12 12 11 11 11 10 10
10 10 9 10 11 11 11 10 10 10 10 8 9 12 13 12 12 12 14 16 17 18 18 18 18 18 18 17 17 17 16 16 15 15 14 14 13 12 12 11 11 10 10 9
10 10 10 10 10 10 10 9 9 9 9 7 9 12 13 12 12 13 14 16 17 18 18 18 18 18 17 17 17 16 16 16 15 14 14 13 13 12 12 11 11 10 10 9
10 9 10 10 10 9 9 9 9 9 9 8 9 11 13 13 13 13 15 16 17 17 17 17 17 17 17 17 16 16 16 15 15 14 13 13 12 12 11 11 10 10 9 9
9 9 9 10 10 9 10 10 9 10 10 10 11 11 13 13 13 14 15 16 16 17 17 17 17 17 17 17 16 16 15 15 14 13 13 13 12 11 11 11 10 10 9 9
8 8 9 9 9 9 10 10 10 10 10 10 10 11 13 13 13 13 15 15 15 17 17 17 17 17 17 16 16 15 15 14 14 13 13 12 11 11 11 10 10 9 9 8
7 7 8 8 9 9 9 10 10 10 9 10 11 13 13 12 11 13 15 15 16 17 17 17 17 17 17 16 16 15 15 14 13 13 12 11 11 10 10 10 9 9 8 8
7 7 7 7 8 8 10 10 11 11 11 10 11 11 12 12 14 15 16 16 16 17 17 17 17 17 16 16 15 15 14 13 13 12 12 11 10 10 9 9 9 8 8 7
8 7 6 6 7 8 9 9 10 10 10 11 11 11 11 13 12 13 16 16 16 17 17 17 16 16 16 15 15 14 14 13 12 12 11 10 10 9 9 8 8 7 7 6
7 7 7 6 7 8 10 10 10 10 10 11 11 11 11 10 10 13 16 16 16 16 16 16 16 15 15 15 14 14 13 12 12 11 10 10 9 9 8 8 7 7 6 6
6 6 6 6 7 8 9 10 10 10 11 12 12 12 11 10 13 15 15 15 15 15 15 15 15 15 14 14 13 13 12 12 11 10 10 9 8 8 7 7 6 6 5 5
7 6 6 6 7 8 9 8 10 11 13 13 13 14 13 13 14 14 14 15 15 15 14 14 14 14 13 13 12 12 12 11 10 10 9 8 8 7 6 6 5 5 4 4
7 8 8 8 9 10 10 11 13 14 13 14 14 15 14 14 14 14 14 14 14 14 14 13 13 13 13 12 12 11 11 10 9 9 8 7 7 6 6 5 5 4 4 3
6 6 6 7 8 9 10 12 13 13 14 14 14 14 14 14 14 13 13 13 13 13 13 13 13 12 12 11 11 10 10 9 8 8 7 7 6 5 5 4 4 3 3 2
6 5 6 7 7 8 10 11 13 13 13 13 14 14 14 14 13 13 13 13 13 13 12 12 12 12 11 10 10 9 8 8 7 7 6 6 5 4 4 3 3 2 2 1
6 6 7 8 8 8 10 13 13 13 13 13 13 13 13 13 13 13 13 13 12 12 12 11 11 10 10 9 9 8 7 7 6 6 5 5 4 4 3 2 2 1 1 0
Wind_Speed
3 4 9 12 11 7 5 5 6 6 3 3 9 14 17 12 8 10 10 9 9 11 10 7 7 8 8 10 12 14 14 13 12 10 10 9 9 8 7 10 14 15 15 15
3 10 12 7 6 6 6 6 7 6 3 3 8 13 13 10 8 8 9 9 9 8 7 6 5 7 9 11 13 13 15 14 14 12 10 7 6 6 6 7 10 14 15 14
12 7 7 7 7 8 8 9 8 6 5 3 6 10 8 6 5 7 7 7 7 8 8 7 6 7 8 10 13 13 14 14 14 12 7 5 4 3 4 6 7 10 14 14
10 7 6 7 9 10 10 8 7 5 3 5 2 7 10 6 8 8 8 7 7 6 6 6 6 7 9 10 10 11 12 13 13 12 11 11 10 9 10 8 8 8 12 13
9 8 9 10 11 11 7 3 4 3 4 5 3 5 10 5 7 9 8 8 7 7 6 6 7 8 7 7 8 9 10 11 12 13 14 13 12 10 6 5 8 8 8 11
7 5 7 9 5 7 6 5 4 3 1 6 8 7 9 6 8 7 6 7 7 6 5 5 5 4 4 5 6 7 9 10 11 13 13 14 13 11 8 8 9 8 7 7
5 6 5 4 5 4 5 5 0 2 3 8 4 6 11 10 9 9 9 9 7 6 5 5 5 4 4 5 7 8 10 10 11 12 13 14 14 12 13 11 11 9 7 7
8 7 9 8 8 8 9 10 8 7 6 5 3 9 10 10 8 9 9 8 7 6 5 6 6 6 6 7 7 8 10 10 10 12 12 11 11 10 9 10 10 10 9 10
10 8 3 6 6 11 8 8 7 5 2 4 6 8 11 7 7 7 8 8 9 8 7 7 6 5 6 6 7 9 10 9 10 11 11 10 11 11 10 9 9 8 8 7
7 6 3 4 4 2 8 9 6 6 6 6 6 6 7 7 8 8 8 10 10 8 6 6 5 5 5 5 5 6 8 9 8 9 9 9 10 10 9 8 9 9 8 7
6 6 2 4 9 11 7 7 6 6 5 6 5 8 8 10 9 9 11 10 9 9 8 6 6 4 4 4 4 5 6 7 7 8 8 8 8 8 8 8 9 8 7 8
5 4 4 7 5 7 7 9 9 8 7 6 5 10 7 9 9 9 10 9 8 8 6 6 5 4 3 4 4 5 6 6 7 7 7 7 7 7 8 8 8 7 8 7
6 5 3 1 1 2 5 6 7 5 5 7 7 9 4 4 6 8 9 9 7 7 6 5 5 5 5 5 5 5 5 6 5 6 6 6 6 7 8 8 7 7 7 6
6 5 8 11 7 7 7 8 9 7 7 8 12 12 9 7 7 7 8 8 7 7 7 7 6 6 6 5 5 5 5 5 5 6 6 7 7 7 7 6 6 6 6 6
6 7 7 7 5 6 8 11 13 14 14 13 13 15 17 11 10 8 8 7 7 8 8 8 7 6 6 5 5 5 5 5 5 6 6 7 6 5 5 5 5 5 5 6
5 5 6 7 6 6 9 12 16 18 15 16 15 18 14 10 7 8 9 8 9 10 10 9 8 7 7 7 6 5 5 5 5 6 6 5 5 5 5 4 4 4 4 4
6 6 5 7 4 3 12 14 16 13 13 14 21 22 11 9 11 13 11 10 11 12 11 10 9 9 8 7 7 7 6 5 5 5 5 5 5 5 4 4 4 4 4 3
9 8 4 3 4 11 11 7 12 15 15 16 14 12 12 14 13 11 11 11 12 12 11 10 8 7 6 5 5 5 5 5 5 5 5 5 5 4 4 4 4 3 3 3
9 9 5 4 7 10 10 6 9 12 14 15 19 16 12 7 4 9 10 12 13 12 10 8 7 6 5 6 6 6 5 5 5 5 5 5 5 5 4 4 4 3 3 3
7 8 7 6 6 9 9 6 6 5 11 10 14 17 12 5 6 12 8 9 11 9 6 6 5 4 5 5 6 7 6 6 6 6 5 5 5 5 5 4 3 2 2 2
8 7 10 9 9 10 9 4 8 7 10 6 10 13 11 12 15 8 3 5 6 6 5 5 6 5 6 6 7 7 6 6 5 4 4 4 4 4 4 3 2 2 2 2
11 10 10 9 9 13 6 8 10 10 4 3 5 8 10 13 11 6 5 5 5 4 4 5 6 5 4 6 8 7 6 5 5 5 5 4 4 3 3 3 2 2 2 2
10 11 8 11 13 7 8 10 9 5 6 6 6 7 8 9 9 8 6 6 5 5 5 5 6 5 4 5 7 8 5 5 6 5 5 4 3 3 3 3 3 2 2 2
6 5 6 8 12 10 9 9 8 7 8 8 7 6 6 8 8 7 6 5 5 5 5 5 6 6 5 5 5 5 5 6 6 6 4 4 4 3 2 2 2 2 2 2
8 7 7 11 12 9 10 12 12 10 8 8 7 6 7 8 7 7 7 7 6 5 4 5 6 7 6 5 5 5 6 7 6 5 4 4 3 3 2 1 2 2 3 4
9 10 12 14 10 9 11 11 12 11 12 12 10 8 7 8 9 7 7 6 5 5 4 5 5 5 5 6 5 5 6 7 7 5 4 3 3 2 2 2 1 1 2 4
Wind_Direction
151 155 206 207 198 193 184 206 243 255 267 261 256 268 277 281 267 262 264 261 257 254 253 240 221 207 194 192 192 193 193 190 182 184 188 191 201 201 201 204 204 201 199 196
137 224 220 189 181 187 198 230 256 281 285 257 279 276 273 266 253 248 252 258 258 263 269 250 222 200 197 197 197 196 196 190 188 192 189 188 184 194 201 199 202 203 200 198
197 223 190 172 185 195 213 217 232 256 319 331 319 299 288 280 272 266 252 249 254 251 259 255 227 211 203 202 199 198 196 192 192 184 169 150 143 147 179 199 205 204 202 201
219 227 177 186 201 187 230 219 211 231 283 288 352 296 285 283 295 274 261 258 261 262 256 250 233 221 213 212 201 196 192 191 188 179 180 182 191 201 204 200 201 198 200 202
219 193 189 204 208 185 207 160 173 206 214 277 256 240 280 293 271 263 257 255 259 260 257 255 241 229 220 207 197 194 188 190 186 186 190 194 203 209 197 186 194 200 201 203
230 210 196 202 192 175 143 94 68 52 112 259 232 209 274 244 231 256 260 253 257 263 263 263 253 226 210 192 189 187 188 194 189 191 194 199 204 201 192 195 200 205 204 204
225 232 213 168 138 151 146 133 189 277 247 246 211 213 250 245 233 234 252 258 261 262 257 261 254 227 212 198 193 190 193 199 194 195 200 204 206 202 203 203 204 203 204 208
193 229 206 191 184 176 185 171 185 209 226 264 214 230 251 247 252 249 249 251 256 257 252 254 248 231 222 213 200 195 199 204 197 199 206 207 206 207 211 208 204 206 210 213
189 223 203 195 185 160 166 197 178 153 192 255 258 272 294 266 256 242 239 240 244 248 251 254 253 236 226 219 210 202 203 207 203 203 204 206 207 208 211 208 207 209 211 209
165 203 212 171 121 179 171 153 139 167 193 238 267 259 246 262 243 238 234 235 241 247 254 258 253 240 230 221 215 204 206 210 207 202 204 208 208 210 210 205 207 209 209 204
167 174 184 171 191 181 151 171 170 166 182 189 243 259 225 224 229 232 238 237 236 239 245 250 251 244 231 219 207 203 203 206 205 203 203 204 207 206 205 208 211 210 208 204
168 158 203 230 236 198 179 177 166 182 211 198 210 262 251 226 239 237 243 245 242 241 245 247 247 243 231 224 216 208 204 205 207 200 197 201 203 200 205 212 213 206 206 205
156 157 168 270 272 191 201 191 184 155 152 180 198 255 276 247 251 241 241 248 249 248 251 252 247 237 231 228 222 216 210 208 201 190 190 195 199 201 208 214 211 204 204 205
160 174 201 210 212 186 206 211 191 168 200 217 223 243 265 263 260 259 251 249 249 248 247 244 243 239 232 227 222 218 217 201 189 184 187 199 205 207 211 210 206 204 202 203
158 208 223 241 226 195 212 213 202 209 215 221 235 236 247 243 241 250 252 251 251 254 250 241 237 236 230 225 223 216 210 193 181 182 192 205 204 202 201 202 203 202 202 206
169 204 209 246 236 229 245 229 214 221 227 235 250 256 248 243 233 244 244 238 243 247 246 242 234 229 226 220 215 209 204 191 175 184 199 198 191 190 195 200 196 194 201 203
178 172 186 236 233 277 251 221 212 216 219 216 237 247 251 242 235 235 236 230 233 240 242 236 228 223 221 213 201 200 196 175 173 185 190 185 182 188 193 187 183 194 200 196
181 182 183 194 176 235 248 204 206 219 231 222 236 246 237 237 241 239 228 223 232 237 238 235 224 219 214 193 181 175 167 169 174 181 186 183 178 184 181 177 190 199 193 197
195 180 175 183 220 262 276 231 197 210 243 227 235 247 249 244 280 268 237 222 229 231 227 222 212 203 188 181 171 158 164 168 174 186 191 188 179 178 178 188 198 195 186 200
190 186 182 186 210 238 247 216 177 170 257 239 225 238 239 172 237 259 247 223 227 227 219 208 189 174 177 177 159 158 171 175 191 194 189 179 172 174 183 190 188 177 178 197
174 188 202 205 226 254 249 189 134 183 243 246 214 226 214 202 224 242 232 219 212 208 205 186 173 178 186 166 157 167 175 194 193 168 158 158 165 170 172 164 160 158 159 159
184 188 199 196 219 244 210 153 185 222 244 243 227 223 217 227 239 237 230 219 204 197 189 177 172 182 173 161 162 173 190 187 154 148 149 154 156 153 148 147 148 147 149 154
201 200 195 203 223 241 191 207 225 221 234 238 229 230 224 233 239 232 224 218 209 200 193 180 172 171 169 170 170 179 184 156 147 143 149 150 143 139 147 154 157 150 154 170
239 210 200 233 248 247 241 250 256 242 237 248 246 240 217 227 233 225 221 218 212 204 194 175 164 172 184 179 173 171 158 151 146 148 150 149 145 141 136 146 160 169 186 198
217 192 216 242 255 268 257 241 244 247 252 263 258 243 227 220 229 222 221 218 211 201 187 175 178 184 184 168 162 155 152 146 143 146 149 148 148 151 149 153 190 201 212 216
215 208 217 239 235 224 245 242 239 242 247 247 246 250 239 219 225 220 220 215 199 190 177 175 177 175 170 161 159 156 152 149 147 150 154 157 157 157 158 149 9 325 276 280
Height
1494 1499 1500 1498 1499 1502 1505 1508 1509 1505 1500 1501 1499 1494 1485 1480 1480 1478 1476 1475 1475 1475 1477 1479 1481 1484 1486 1489 1492 1495 1498 1501 1504 1507 1510 1513 1515 1518 1521 1523 1525 1527 1529 1530
1496 1496 1491 1493 1497 1500 1503 1507 1507 1504 1499 1500 1499 1492 1481 1476 1475 1473 1472 1471 1470 1471 1472 1474 1476 1478 1481 1484 1486 1489 1492 1496 1499 1502 1505 1508 1511 1514 1516 1519 1521 1523 1525 1526
1490 1487 1487 1492 1496 1500 1502 1504 1504 1504 1501 1499 1500 1491 1480 1473 1470 1469 1468 1467 1467 1467 1468 1469 1471 1474 1476 1479 1481 1484 1488 1491 1494 1497 1501 1504 1507 1509 1512 1513 1516 1518 1520 1522
1486 1485 1487 1490 1493 1495 1500 1497 1499 1501 1505 1508 1505 1506 1483 1475 1471 1466 1464 1464 1464 1464 1465 1466 1468 1470 1472 1474 1477 1480 1483 1486 1489 1493 1496 1498 1500 1502 1505 1508 1510 1513 1515 1517
1481 1481 1483 1486 1486 1489 1492 1493 1497 1500 1504 1508 1506 1508 1487 1476 1470 1463 1460 1460 1461 1462 1463 1463 1465 1466 1468 1471 1473 1476 1479 1482 1485 1488 1490 1493 1495 1498 1501 1503 1505 1508 1510 1511
1477 1477 1478 1479 1482 1485 1489 1496 1501 1506 1509 1511 1502 1507 1491 1476 1466 1460 1457 1457 1458 1459 1460 1461 1462 1463 1465 1467 1469 1472 1475 1477 1480 1483 1485 1488 1490 1493 1495 1497 1499 1502 1503 1505
1478 1476 1475 1476 1482 1486 1489 1499 1509 1509 1511 1506 1497 1501 1484 1464 1459 1457 1455 1454 1455 1456 1457 1458 1459 1460 1462 1464 1466 1468 1471 1473 1476 1478 1480 1482 1485 1487 1489 1491 1493 1495 1497 1499
1478 1478 1472 1472 1475 1481 1485 1490 1502 1506 1506 1503 1497 1495 1471 1456 1453 1452 1451 1452 1453 1454 1455 1455 1456 1458 1459 1461 1463 1465 1467 1469 1471 1473 1475 1477 1479 1482 1483 1486 1487 1489 1491 1492
1473 1473 1467 1467 1468 1474 1483 1487 1487 1498 1501 1502 1495 1485 1467 1451 1449 1449 1449 1449 1449 1450 1452 1453 1454 1456 1457 1459 1460 1461 1463 1465 1466 1468 1470 1472 1474 1476 1477 1479 1481 1483 1485 1486
1463 1470 1466 1466 1468 1469 1472 1479 1490 1495 1499 1499 1492 1485 1470 1452 1448 1446 1446 1445 1446 1447 1449 1450 1452 1453 1455 1456 1457 1458 1459 1461 1462 1464 1465 1467 1468 1470 1472 1473 1475 1477 1478 1480
1459 1466 1469 1467 1466 1469 1474 1478 1480 1487 1491 1494 1492 1476 1451 1446 1442 1443 1441 1441 1442 1444 1446 1448 1449 1451 1452 1453 1454 1455 1455 1457 1458 1459 1461 1462 1463 1465 1466 1467 1469 1470 1472 1473
1456 1462 1468 1465 1461 1460 1462 1467 1474 1481 1485 1488 1487 1469 1439 1440 1438 1438 1437 1438 1439 1441 1443 1444 1446 1447 1448 1449 1450 1451 1452 1453 1454 1455 1456 1457 1458 1459 1460 1462 1463 1465 1466 1467
1453 1460 1467 1468 1467 1464 1463 1465 1467 1470 1477 1485 1482 1462 1437 1437 1435 1435 1435 1435 1436 1438 1439 1441 1442 1443 1444 1445 1446 1447 1448 1449 1450 1451 1452 1453 1454 1455 1455 1457 1458 1459 1460 1461
1447 1455 1457 1458 1454 1456 1460 1461 1463 1467 1470 1473 1466 1451 1438 1435 1433 1432 1432 1432 1433 1434 1435 1436 1437 1438 1440 1441 1442 1443 1444 1445 1445 1446 1447 1448 1449 1450 1451 1452 1453 1454 1455 1455
1445 1451 1450 1448 1447 1449 1449 1450 1455 1456 1453 1456 1447 1444 1433 1430 1430 1429 1429 1429 1430 1430 1431 1432 1433 1434 1436 1437 1438 1439 1440 1440 1441 1442 1443 1444 1445 1446 1447 1447 1448 1449 1449 1450
1444 1447 1448 1448 1446 1447 1445 1443 1444 1445 1444 1443 1440 1434 1423 1423 1425 1425 1425 1425 1425 1426 1426 1427 1429 1430 1431 1432 1434 1435 1435 1436 1437 1438 1439 1440 1440 1441 1442 1443 1443 1444 1444 1445
1442 1446 1449 1449 1446 1445 1442 1432 1434 1434 1432 1432 1429 1418 1418 1420 1419 1418 1418 1419 1420 1420 1421 1422 1423 1425 1427 1428 1429 1430 1431 1432 1433 1433 1434 1435 1436 1436 1437 1438 1438 1439 1439 1439
1437 1442 1447 1449 1448 1449 1422 1417 1418 1420 1417 1418 1415 1411 1411 1411 1410 1411 1412 1413 1413 1414 1416 1417 1419 1420 1422 1423 1425 1426 1427 1427 1428 1429 1430 1430 1431 1432 1432 1433 1433 1434 1434 1434
1428 1435 1443 1447 1444 1434 1420 1414 1413 1416 1411 1407 1407 1405 1404 1406 1407 1404 1404 1405 1407 1409 1411 1412 1414 1416 1417 1419 1420 1421 1422 1423 1424 1424 1425 1426 1426 1427 1428 1428 1428 1428 1428 1428
1424 1427 1436 1442 1438 1430 1409 1402 1402 1408 1407 1396 1397 1397 1399 1404 1409 1398 1397 1399 1400 1402 1405 1407 1409 1410 1412 1413 1415 1416 1417 1418 1419 1420 1420 1421 1422 1422 1423 1423 1423 1423 1423 1423
1425 1427 1429 1432 1430 1416 1400 1399 1401 1411 1398 1388 1388 1389 1392 1395 1392 1391 1393 1394 1395 1396 1399 1401 1403 1404 1406 1408 1410 1411 1412 1413 1414 1415 1416 1417 1417 1418 1418 1418 1419 1418 1418 1418
1411 1417 1421 1423 1423 1410 1392 1396 1396 1389 1384 1384 1384 1384 1386 1385 1385 1387 1388 1389 1390 1391 1393 1395 1397 1399 1401 1403 1404 1405 1407 1408 1409 1410 1411 1412 1413 1413 1414 1414 1414 1414 1413 1412
1400 1398 1399 1400 1394 1385 1384 1383 1381 1381 1382 1381 1381 1381 1382 1381 1381 1382 1383 1384 1385 1387 1388 1390 1392 1393 1396 1398 1399 1401 1402 1403 1404 1406 1407 1407 1408 1409 1409 1409 1409 1409 1408 1407
1393 1390 1393 1392 1384 1379 1379 1377 1377 1378 1378 1378 1378 1378 1377 1376 1376 1377 1378 1379 1381 1382 1383 1384 1386 1388 1390 1392 1394 1396 1397 1399 1400 1401 1402 1403 1403 1404 1404 1404 1404 1404 1403 1402
1383 1386 1386 1383 1377 1376 1373 1372 1372 1373 1373 1374 1374 1374 1373 1372 1372 1373 1373 1374 1376 1377 1378 1380 1381 1383 1385 1387 1389 1391 1392 1394 1395 1396 1397 1398 1399 1399 1399 1399 1400 1399 1398 1398
1374 1376 1377 1371 1368 1370 1365 1365 1367 1368 1367 1368 1368 1367 1367 1368 1367 1368 1368 1370 1371 1372 1373 1375 1376 1378 1380 1382 1384 1386 1388 1389 1390 1391 1392 1393 1394 1394 1394 1394 1394 1394 1394 1393